Regional Weather Roundup
Issued by NWS

Home | Current Version | Previous Version | Text Only | Print | Product List | Glossary On
Versions: 1 2 3 4 5 6 7 8 9 10 11 12 13 14 15 16 17 18 19 20 21 22 23 24 25 26 27 28 29 30 31 32 33 34 35 36 37 38 39 40 41 42 43 44 45 46 47 48 49 50
000
ASUS43 KMPX 200810
RWRMN
WEATHER ROUNDUP FOR MINNESOTA
NATIONAL WEATHER SERVICE TWIN CITIES/CHANHASSEN MN
200 AM CST SAT DEC 20 2014


NOTE: "FAIR" INDICATES FEW OR NO CLOUDS BELOW 12,000 FEET WITH NO
SIGNIFICANT WEATHER AND/OR OBSTRUCTIONS TO VISIBILITY. N/A MEANS
CURRENT SKY AND/OR WEATHER CONDITIONS ARE NOT AVAILABLE.

MNZ060>063-068>070-200900-
   Twin Cities Metro

CITY           SKY/WX    TMP DP  RH WIND       PRES   REMARKS
TWIN CITIES    CLOUDY    29  25  85 SE7       30.17R FOG     WCI  22
ST PAUL        CLOUDY    29  25  85 SE10      30.19R WCI  20
CRYSTAL        CLOUDY    30  26  85 SE8       30.15R WCI  22
BLAINE         CLOUDY    30  28  93 SE9       30.15S WCI  22
LAKEVILLE      MOCLDY    28  25  86 S5        30.16S WCI  23
EDEN PRAIRIE   CLOUDY    30  26  85 S7        30.15R FOG     WCI  23
SOUTH ST PAUL  CLOUDY    30  26  83 S3        30.17S
LAKE ELMO      CLOUDY    30  27  86 S9        30.18R WCI  22
$$
MNZ001>005-007-008-013>017-022>024-027-028-200900-
   Northwest Minnesota

CITY           SKY/WX    TMP DP  RH WIND       PRES   REMARKS
BEMIDJI        CLOUDY    26  26  98 SE3       30.02S FOG
HALLOCK        CLOUDY    28  28 100 CALM      30.00R FOG
ROSEAU         CLOUDY    27  23  86 SE6       30.02R FOG     WCI  20
WARROAD        CLOUDY    27  21  80 S7        30.03R FOG     WCI  19
THIEF RVR FALL CLOUDY    30  28  93 S8        30.01S WCI  23
CROOKSTON      CLOUDY    30  28  93 SW8       30.02R FOG     WCI  23
FOSSTON        CLOUDY    28  27  93 S10       30.01S FOG     WCI  19
DETROIT LAKES  CLOUDY    30  30 100 S10       30.03R FOG     WCI  21
MOORHEAD       CLOUDY    30  30 100 SW10      30.03S WCI  21
PARK RAPIDS    CLOUDY    30  28  92 S12       30.02S FOG     WCI  20
MAHNOMEN       CLOUDY    29  29  98 S10       30.01S FOG     WCI  20
$$
MNZ006-009>011-018-025>026-200900-
   North Central Minnesota

CITY           SKY/WX    TMP DP  RH WIND       PRES   REMARKS
BAUDETTE       CLOUDY    25  22  88 SE6       30.03S FOG     WCI  18
FLAG ISLAND    CLOUDY    25  23  93 S9        30.02F FOG     WCI  15
INTL FALLS     CLOUDY    24  22  91 SE5       30.06S WCI  18
WASKISH        LGT SNOW  27  25  93 CALM      30.04S
BIG FORK       CLOUDY    27  25  93 S6        30.05F FOG     WCI  20
LONGVILLE      LGT SNOW  27  27 100 S8        30.05S WCI  18
GRAND RAPIDS   CLOUDY    27  25  93 S13       30.06S WCI  16
CRANE LAKE     LGT SNOW  25  23  93 CALM      30.11S
ORR            MIX PCPN  25  21  86 SE3       30.05S
COOK           LGT SNOW  25  23  93 SE6       30.08S WCI  18
WALKER         CLOUDY    28  27  97 S8        30.03S FOG     WCI  20
$$
MNZ012-019>021-037-200900-
   Northeast Minnesota

CITY           SKY/WX    TMP DP  RH WIND       PRES   REMARKS
DULUTH         CLOUDY    25  22  88 SE6       30.11S FOG     WCI  18
ELY            CLOUDY    25  23  93 S6        30.10S FOG     WCI  18
HIBBING        LGT SNOW  26  22  84 SE7       30.08S FOG     WCI  18
EVELETH        LGT SNOW  27  25  93 S6        30.10S WCI  20
DULUTH HARBOR  CLOUDY    28  25  86 CALM      30.17S
TWO HARBORS    CLOUDY    28  25  86 S3        30.12F
SILVER BAY     CLOUDY    28  27  93 S3        30.13S
GRAND MARAIS     N/A     31  25  78 S7        30.18F WCI  24
G MARAIS ARPRT CLOUDY    21  19  93 CALM      30.12S FOG
$$
MNZ029>031-032-039>041-046>048-054>057-064-200900-
   West Central Minnesota

CITY           SKY/WX    TMP DP  RH WIND       PRES   REMARKS
FERGUS FALLS   CLOUDY    30  28  93 S12       30.07S FOG     WCI  21
WHEATON        CLOUDY    28  27  93 S7        30.06S WCI  21
MORRIS         MOCLDY    30  28  93 S12       30.05R FOG     WCI  21
ALEXANDRIA     CLOUDY    30  27  88 S16G23    30.05S FOG     WCI  19
ELBOW LAKE     CLOUDY    30  29  97 S15       30.04S FOG     WCI  19
WADENA         CLOUDY    28  28 100 S10       30.03F FOG     WCI  19
GLENWOOD       CLOUDY    28  28 100 S17       30.06F FOG     WCI  16
APPLETON       CLOUDY    32  28  86 S6        30.06S WCI  26
BENSON         CLOUDY    30  28  93 S10       30.06F FOG     WCI  21
ORTONVILLE     CLOUDY    30  27  86 S5        30.05R WCI  25
MADISON        PTCLDY    34  32  93 S6        30.05F WCI  29
WILLMAR        CLOUDY    32  28  86 CALM      30.10S FOG
$$
MNZ033>034-036-042>043-049>051-058-059-200900-
   Central Minnesota

CITY           SKY/WX    TMP DP  RH WIND       PRES   REMARKS
ST CLOUD       CLOUDY    32  28  85 S12       30.11S FOG     WCI  23
SAUK CENTRE    CLOUDY    30  28  93 S13G20    30.07F FOG     WCI  20
PAYNESVILLE    CLOUDY    28  28  96 SE7       30.09S FOG     WCI  21
AITKIN         CLOUDY    28  25  86 S5        30.07S FOG     WCI  23
PINE RIVER     CLOUDY    28  28 100 S8        30.08S FOG     WCI  20
BRAINERD       CLOUDY    28  27  96 S10       30.08S FOG     WCI  19
STAPLES        CLOUDY    28  28 100 S10       30.05S FOG     WCI  19
LONG PRAIRIE   CLOUDY    30  28  93 S13       30.07S FOG     WCI  20
LITTLE FALLS   CLOUDY    30  28  93 SE9       30.09S FOG     WCI  22
LITCHFIELD     CLOUDY    32  32 100 S3        30.11S FOG
BUFFALO        CLOUDY    30  28  92 SE6       30.14S FOG     WCI  24
MAPLE LAKE     CLOUDY    31  31  96 S6        30.13S FOG     WCI  26
$$
MNZ037-044-045-052-053-200900-
   East Central Minnesota

CITY           SKY/WX    TMP DP  RH WIND       PRES   REMARKS
PRINCETON      CLOUDY    30  28  93 SE7       30.13S FOG     WCI  23
MORA           CLOUDY    27  23  86 S7        30.14F WCI  19
CAMBRIDGE      CLOUDY    30  23  74 S7        30.13S HAZE    WCI  23
RUSH CITY      CLOUDY    28  25  87 S7        30.15S WCI  21
MOOSE LAKE     CLOUDY    28  25  86 S3        30.11S
HINCKLEY       CLOUDY    28  27  93 S7        30.14S WCI  21
CLOQUET        CLOUDY    25  23  93 SE3       30.11S FOG
MCGREGOR       CLOUDY    28  27  93 S8        30.10R WCI  20
$$
MNZ071>073-080-081-089-090-097-098-200900-
   Southwest Minnesota

CITY           SKY/WX    TMP DP  RH WIND       PRES   REMARKS
MONTEVIDEO     CLOUDY    30  30 100 SW8       30.08F FOG     WCI  23
GRANITE FALLS  CLOUDY    31  28  89 S13       30.10S WCI  21
CANBY          CLOUDY    31  29  92 S9        30.06F WCI  23
MARSHALL       CLOUDY    30  27  86 SW14      30.07S WCI  20
REDWOOD FALLS  CLOUDY    32  28  85 S14       30.10S FOG     WCI  22
OLIVIA         CLOUDY    32  30  93 S9        30.09S FOG     WCI  24
PIPESTONE      CLOUDY    30  28  93 SW5       30.04S FOG     WCI  25
WINDOM         CLOUDY    30  28  93 S12G17    30.09S FOG     WCI  21
WORTHINGTON    CLOUDY    28  28 100 S9        30.08S WCI  20
JACKSON        CLOUDY    32  28  86 S10       30.10S FOG     WCI  24
TRACY          CLOUDY    32  29  91 S9        30.07S FOG     WCI  24
SLAYTON        CLOUDY    30  30  99 S3        30.06S FOG
$$
MNZ065>067-074>077-082>085-091>093-200900-
   South Central Minnesota

CITY           SKY/WX    TMP DP  RH WIND       PRES   REMARKS
MANKATO        CLOUDY    30  27  86 S8        30.14S WCI  23
NEW ULM        CLOUDY    30  30 100 S9        30.12S FOG     WCI  22
ST JAMES       CLOUDY    32  30  93 SE8       30.13S FOG     WCI  25
FAIRMONT       CLOUDY    30  27  86 S10       30.12S WCI  21
GLENCOE        CLOUDY    32  31  98 SE8       30.12F FOG     WCI  25
FARIBAULT      CLOUDY    28  27  93 S7        30.16S FOG     WCI  21
OWATONNA       MOCLDY    28  27  93 S12       30.16S FOG     WCI  18
WASECA         CLOUDY    30  28  93 SE8       30.16S FOG     WCI  23
ALBERT LEA     CLOUDY    28  28 100 S7        30.15S FOG     WCI  21
$$
MNZ078>079-086>088-094>096-200900-
   Southeast Minnesota

CITY           SKY/WX    TMP DP  RH WIND       PRES   REMARKS
ROCHESTER      CLOUDY    27  23  85 S9        30.17S WCI  18
RED WING       CLOUDY    30  23  74 S3        30.18S
STANTON        CLOUDY    31  26  82 S7        30.16R WCI  24
DODGE CENTER   CLOUDY    28  27  93 S10       30.16R FOG     WCI  19
WINONA         CLOUDY    30  23  74 SE3       30.22S
AUSTIN         CLOUDY    27  25  93 S7        30.17S FOG     WCI  19
PRESTON        CLOUDY    26  23  87 S6        30.19R WCI  20
$$
ABBREVIATIONS USED IN REMARKS
   TC - TEMPERATURES IN CELSIUS
  WCI - WIND CHILL INDEX
   HX - HEAT INDEX
  VSB - VISIBILITY
$$


USA.gov is the U.S. government's official web portal to all federal, state and local government web resources and services.